User: anonymous   Login
Location: Pensacola
(30.4142°N, 87.2155°W)
Time: 08:58:01
(UTC-06:00)
Language:

YAOGAN-30 D - Orbit

View from above orbital plane
View from above orbital plane
View from above satellite
View from above satellite

Ground track
Ground track

The orbit data is extracted from the following two-line orbital elements,

1 43028U 17075A   24054.27245863  .00003472  00000-0  32020-3 0  9995
2 43028  34.9966 350.7047 0001680 157.3894 202.6886 14.94220938340577
Epoch (UTC): 23 February 2024 06:32:20
Eccentricity: 0.0001680
inclination: 34.9966°
perigee height: 583 km
apogee height: 586 km
right ascension of ascending node: 350.7047°
argument of perigee: 157.3894°
revolutions per day: 14.94220938
mean anomaly at epoch: 202.6886°
orbit number at epoch: 34057

The dashed part of the orbit path shows where the satellite is in the earth's shadow,  

DLR